Temperature
20 20 20 20 23 25 24 24 24 24 24 23 22 23 23 22 22 20 17 17 17 17 17 17 17 17 17 17 17 17 17 17 17 17 17 17 17 17 17 17 17 17 17 17 17 18 18 18 18
20 20 20 22 25 25 24 24 24 24 23 22 22 22 22 20 19 18 17 17 17 17 17 17 17 17 17 17 17 17 17 17 17 17 17 17 17 17 17 17 17 17 17 17 17 17 18 18 18
20 20 21 24 25 25 24 24 24 23 22 22 22 21 21 20 18 17 17 17 17 17 16 16 17 17 17 17 17 17 17 16 17 17 17 17 17 16 17 17 17 17 17 17 17 17 17 17 17
20 20 23 25 24 24 25 25 24 23 22 22 22 21 19 18 18 17 17 17 17 16 16 16 17 17 17 17 17 16 16 16 16 16 16 16 16 16 16 16 17 17 17 17 17 17 17 17 17
20 22 25 24 24 24 25 24 23 24 23 22 22 21 19 17 17 17 17 17 16 16 16 16 16 16 16 16 16 16 16 16 16 16 16 16 16 16 16 16 16 16 17 17 17 17 17 17 17
22 24 25 24 24 24 24 23 23 24 23 22 22 21 19 17 17 17 17 17 17 16 16 16 16 16 16 16 16 16 16 16 16 16 16 16 16 16 16 16 16 16 16 16 16 16 17 17 17
23 24 25 24 24 24 24 23 23 23 23 22 21 21 19 18 17 17 17 16 16 16 16 16 16 16 16 16 16 16 16 16 16 16 16 16 16 16 16 16 16 16 16 16 16 16 16 16 16
22 24 24 24 24 23 23 23 22 23 22 20 20 21 20 18 17 17 17 17 16 16 16 16 16 16 16 16 16 16 16 16 16 16 16 16 16 16 15 15 16 16 16 16 16 16 16 16 16
21 24 24 24 24 23 23 23 22 21 21 20 20 20 19 18 17 17 17 17 17 16 16 16 16 16 16 16 16 16 16 16 16 15 16 16 15 15 15 15 16 16 16 16 16 16 16 16 16
23 24 24 24 24 24 23 23 22 22 22 21 20 19 18 17 17 18 18 18 17 17 17 16 16 16 16 16 15 15 15 15 15 15 15 16 16 15 15 16 16 16 16 16 16 16 16 16 16
23 24 23 23 23 23 23 23 22 23 23 22 21 19 18 18 18 18 18 18 17 17 17 17 16 16 16 16 16 15 15 15 15 15 16 16 16 16 15 15 16 16 16 16 16 16 16 16 16
23 23 23 23 22 23 23 23 22 22 22 21 20 19 18 18 18 18 18 18 17 17 17 16 16 16 16 16 16 16 16 16 16 15 16 16 16 16 16 16 16 15 16 16 16 16 15 16 16
23 23 22 22 22 22 22 22 22 21 20 20 20 19 19 19 19 18 18 18 17 17 17 17 16 17 16 16 16 16 16 16 16 15 16 16 16 16 16 16 15 16 15 15 15 15 15 15 15
23 23 23 23 22 22 23 22 22 21 20 20 19 19 19 19 19 18 18 18 18 17 17 17 17 16 16 16 16 16 16 16 16 16 16 16 16 16 16 16 15 15 15 15 15 15 15 15 15
22 23 23 23 23 22 23 23 23 21 20 20 20 19 19 19 18 18 18 18 18 18 17 17 17 17 16 16 16 16 16 16 16 16 16 16 16 16 16 16 16 15 15 15 15 15 15 15 15
23 23 23 23 23 22 23 23 23 21 21 21 20 20 19 19 19 18 18 18 18 18 17 17 17 16 16 16 16 16 16 16 16 16 16 16 16 16 15 15 15 15 15 15 15 15 15 15 15
23 23 23 23 23 23 23 23 23 21 21 21 21 20 19 19 19 19 18 18 18 18 17 17 17 16 16 16 16 16 16 16 16 15 15 16 16 15 15 15 15 15 15 15 15 15 15 15 15
23 23 23 23 23 23 23 23 23 21 21 21 21 20 20 20 19 19 18 18 18 17 17 17 17 16 16 16 16 16 16 15 15 15 15 15 15 15 15 15 15 15 15 15 15 15 15 15 15
23 23 23 23 23 22 23 23 24 22 21 21 21 21 20 20 19 19 18 18 17 17 17 17 17 16 16 16 16 16 15 15 15 15 15 15 15 15 15 15 15 15 15 15 15 15 15 15 14
23 22 23 23 23 22 23 23 24 23 22 22 22 21 21 20 19 18 18 18 18 17 17 17 17 16 16 16 16 15 15 15 15 15 15 15 15 15 15 15 15 15 15 15 15 15 15 15 15
22 22 22 22 22 22 22 23 23 23 22 21 21 21 21 20 20 19 18 18 18 17 17 17 17 16 16 16 16 15 15 15 15 15 15 15 15 15 15 15 15 15 15 15 15 15 15 15 15
22 22 22 22 22 22 22 22 23 23 23 22 21 21 21 20 20 19 18 18 18 18 17 17 17 16 16 16 15 15 15 15 15 15 15 15 15 15 15 15 15 15 15 15 15 15 15 15 15
22 22 22 22 22 22 22 22 24 23 22 23 23 21 20 20 20 19 18 18 18 18 17 17 17 16 16 16 16 15 15 15 15 15 15 15 15 15 15 15 15 15 15 15 15 15 15 15 15
22 22 21 21 22 21 22 22 23 23 23 23 23 22 21 20 19 19 18 18 18 18 17 17 17 16 16 16 15 15 15 15 15 15 15 15 15 15 15 15 15 15 15 15 15 15 15 15 15
22 22 21 21 21 22 22 22 22 24 23 23 23 22 21 20 19 18 18 18 18 18 18 17 17 17 16 16 15 15 15 15 15 15 15 15 15 15 15 15 15 15 15 15 15 15 15 15 15
22 22 21 21 21 22 22 22 23 23 22 22 21 21 20 19 19 18 18 18 18 18 18 17 17 17 16 16 16 15 15 15 15 15 15 15 15 15 15 15 15 15 15 15 15 15 15 15 15
22 22 22 22 21 21 22 23 23 23 23 22 21 21 20 19 19 18 18 18 18 18 18 18 17 17 16 16 16 15 15 15 15 15 15 15 15 15 15 15 15 15 15 15 15 15 15 15 15
22 22 21 21 20 21 21 22 22 22 22 22 22 21 20 19 19 18 18 17 17 18 18 17 17 17 16 16 16 16 15 15 15 15 15 15 15 15 15 15 15 15 15 15 15 15 15 15 15
21 21 21 21 21 21 21 22 23 22 22 22 22 21 20 19 19 18 18 18 17 18 18 17 17 17 16 16 16 16 16 15 15 15 15 15 15 15 15 15 15 15 15 15 15 15 15 15 15
22 22 22 21 21 21 21 22 23 22 22 22 21 20 19 19 18 18 18 18 18 18 17 17 17 17 17 16 16 16 16 15 15 15 15 15 15 15 15 15 15 15 15 15 15 15 15 15 15
Wind_Speed
3 3 3 3 3 2 4 4 3 3 3 4 4 4 4 5 4 4 4 4 4 4 5 7 7 7 7 7 7 8 8 9 9 9 9 9 9 9 9 9 9 9 9 9 9 8 8 8 8
2 2 3 3 3 3 4 3 4 5 5 4 4 4 4 5 5 5 4 4 4 5 5 7 8 8 8 7 7 7 9 9 9 9 9 9 8 8 8 8 9 9 9 8 8 7 7 7 7
3 3 2 2 0 2 4 4 5 6 4 2 3 4 4 4 4 4 4 5 5 5 6 8 8 8 8 8 7 7 8 9 9 9 9 8 8 8 8 8 8 8 8 7 7 7 7 7 7
3 3 2 1 4 4 4 4 4 5 3 2 3 5 4 5 3 5 6 6 6 6 7 9 8 8 8 9 8 8 9 9 9 9 9 9 9 8 7 8 8 8 8 7 7 6 6 6 6
2 3 3 3 4 4 4 4 3 3 3 3 3 5 6 5 6 8 7 7 7 7 8 10 10 9 9 9 8 9 9 9 9 9 9 10 9 9 8 8 8 8 8 7 6 6 6 6 6
2 3 3 4 5 4 4 3 2 2 4 4 4 6 6 6 7 8 7 7 7 8 8 10 11 11 10 10 9 9 9 9 9 10 10 10 9 8 8 8 8 7 7 6 6 5 5 5 5
2 2 2 4 5 4 3 2 2 2 3 3 2 4 6 7 7 7 8 7 8 8 8 8 10 10 11 10 9 9 9 9 9 9 9 9 8 8 8 8 8 8 7 6 5 5 5 6 6
2 2 3 4 4 3 4 3 2 1 4 4 2 3 6 9 8 7 7 7 7 7 7 7 9 8 9 10 10 10 10 9 9 9 8 7 7 8 7 8 8 7 7 6 6 6 7 7 7
3 3 3 3 3 3 4 3 3 2 5 4 2 3 7 12 10 9 7 7 6 6 6 6 7 7 8 9 8 8 8 8 6 8 6 4 5 7 6 9 8 7 7 7 7 7 7 6 8
2 2 2 1 1 3 4 3 4 4 4 4 6 7 11 12 10 9 8 7 6 6 6 5 5 6 6 6 5 5 6 6 5 6 5 4 5 5 6 8 7 7 7 7 8 6 5 2 6
1 1 2 2 2 3 4 3 3 3 2 3 6 11 13 11 10 8 7 6 6 6 5 4 4 4 5 4 4 4 4 4 4 4 4 3 4 4 4 4 5 6 4 6 6 4 5 6 7
1 2 1 2 2 2 3 3 3 2 0 2 6 11 12 11 9 8 7 6 6 5 5 4 4 4 4 3 3 2 3 3 3 3 3 3 3 3 4 4 4 4 5 5 5 5 7 7 8
2 2 2 2 3 2 3 3 2 2 2 5 9 11 11 10 9 7 6 6 5 5 5 4 3 3 4 3 2 2 2 2 3 3 2 3 3 3 4 4 4 4 4 5 5 5 7 7 8
2 2 2 2 2 2 3 3 3 4 6 8 10 11 11 9 9 8 7 6 6 5 5 4 4 3 3 3 2 3 3 3 3 3 2 3 3 3 3 4 4 4 4 5 5 6 6 6 7
3 3 3 2 2 2 3 4 4 5 8 9 10 10 10 9 9 8 7 6 6 6 6 5 4 3 3 3 3 3 3 3 3 3 3 3 3 3 3 3 4 4 4 5 5 6 6 6 6
4 4 4 2 2 3 5 4 4 7 9 9 9 10 10 9 9 8 7 6 6 6 6 5 4 4 3 3 3 3 3 3 3 3 3 4 4 4 4 3 3 4 4 4 4 4 5 5 5
5 5 4 3 3 4 6 5 4 7 9 9 10 10 10 10 9 8 7 7 6 6 6 6 6 5 4 4 4 3 4 4 4 4 3 3 4 4 4 3 3 4 3 3 4 4 4 5 5
4 5 4 4 2 5 7 7 5 8 10 10 10 10 10 10 10 9 8 7 6 6 5 6 6 5 5 4 4 4 4 4 4 4 4 4 3 4 4 3 3 3 3 3 4 5 4 4 4
4 5 5 4 2 5 8 9 7 8 10 11 11 12 12 11 10 9 8 8 8 7 6 6 7 6 5 4 3 3 3 3 3 3 4 3 3 3 4 2 3 2 3 4 5 5 6 4 3
6 6 5 3 2 5 7 10 8 8 11 12 12 13 13 12 11 10 10 10 10 9 8 7 6 6 5 3 3 3 3 3 3 3 4 3 3 3 3 2 2 2 3 4 4 4 3 3 1
7 7 6 5 3 5 7 7 7 7 9 10 11 12 13 13 13 13 12 11 10 10 10 7 7 7 6 5 4 4 4 3 3 3 3 3 3 3 3 3 2 2 3 3 3 3 3 2 2
6 5 6 6 6 4 3 5 4 5 7 10 12 13 13 13 13 12 12 12 11 11 10 9 8 7 6 6 5 5 3 3 3 2 3 3 3 3 3 3 2 3 2 3 3 2 1 1 1
3 2 5 5 7 7 6 6 4 3 6 8 10 12 14 14 14 13 13 12 11 11 10 9 9 8 7 6 6 5 4 3 3 3 3 3 3 3 3 2 2 2 2 2 2 2 1 1 0
4 4 4 4 6 7 5 6 4 3 5 5 6 10 12 13 14 13 12 12 11 10 10 9 10 9 8 7 7 6 5 5 5 4 3 3 3 3 3 2 2 2 2 2 2 2 1 0 0
6 5 3 4 4 4 1 5 4 2 3 4 4 6 9 12 13 14 14 14 13 12 12 11 11 10 9 8 7 6 6 5 5 4 4 3 3 3 3 2 2 3 3 3 2 2 1 1 1
8 7 4 3 3 3 3 5 2 1 2 2 2 4 7 11 12 14 15 14 14 13 13 12 12 11 10 9 7 6 6 4 3 3 3 3 3 3 3 3 3 3 3 3 2 2 2 2 2
7 8 5 5 5 5 4 3 3 1 1 1 1 3 6 10 12 13 14 15 14 14 13 13 12 11 11 10 8 7 6 5 4 4 4 3 4 3 4 3 3 3 3 2 2 2 2 2 2
5 5 5 5 4 5 4 5 3 1 2 1 1 3 5 8 11 12 13 14 13 13 13 12 12 12 11 10 8 6 6 6 4 4 4 5 5 4 4 4 4 4 3 3 2 2 2 2 3
7 8 7 6 5 4 4 1 0 2 2 2 1 2 5 8 9 11 11 13 13 12 12 12 12 12 11 10 9 8 7 6 6 5 5 4 5 5 4 4 3 4 3 3 3 2 3 2 3
9 9 9 7 5 6 5 3 2 2 3 2 1 2 4 6 8 9 11 12 12 13 13 13 12 12 11 11 10 9 8 7 7 6 6 5 5 5 4 4 4 3 3 3 3 3 2 2 3
Wind_Direction
182 179 204 227 230 160 90 82 78 75 66 65 64 60 67 48 26 61 77 79 88 96 98 109 104 100 101 103 105 105 101 104 103 102 99 98 98 97 95 94 91 88 83 80 79 76 73 71 70
177 180 223 241 242 142 98 95 89 66 89 100 80 68 75 71 58 80 94 91 94 91 92 91 97 100 100 102 102 104 103 104 101 100 98 97 95 94 95 93 89 85 81 78 77 76 72 70 71
169 223 256 242 160 86 104 99 98 97 94 95 91 64 59 69 73 82 95 112 106 94 89 89 90 95 98 100 102 105 108 104 100 96 94 94 92 91 90 93 89 84 81 78 76 75 71 67 69
204 217 233 193 108 76 90 108 118 124 109 73 103 92 80 61 67 96 113 114 107 97 87 87 84 89 94 96 101 105 106 101 98 97 94 92 89 88 91 90 88 85 78 76 76 73 72 69 68
234 245 197 145 114 100 94 104 128 121 107 95 102 102 96 82 92 108 112 105 102 93 87 88 82 83 86 91 92 96 100 100 98 96 93 91 88 86 84 86 89 88 84 80 77 74 73 69 68
225 236 201 151 128 120 116 119 131 103 105 105 105 111 101 109 112 112 109 103 101 98 96 98 94 83 80 83 87 94 97 97 95 92 91 90 88 86 86 85 86 86 85 80 76 76 74 68 65
256 228 182 150 146 141 119 125 131 108 115 107 103 112 122 128 119 120 114 107 102 100 96 96 99 97 92 84 84 94 96 94 91 88 87 89 90 88 87 86 83 84 82 77 76 77 77 73 67
285 217 170 166 165 138 128 135 102 93 99 113 124 123 140 144 137 130 121 115 108 103 97 95 93 91 93 92 81 81 85 87 88 87 85 93 106 102 98 98 83 79 79 76 77 79 79 77 74
261 225 183 165 173 140 150 154 120 116 129 129 110 92 126 140 146 143 136 127 118 112 104 97 95 92 87 84 88 94 93 90 106 105 101 122 108 100 107 77 78 77 75 74 76 80 83 91 92
251 222 129 120 157 145 162 167 151 164 154 146 136 127 137 149 156 155 147 138 132 122 113 108 103 100 94 86 88 95 93 86 78 75 80 82 84 85 85 96 84 81 86 90 81 90 114 116 94
222 120 102 127 134 149 160 158 167 193 182 168 161 155 154 158 160 157 147 136 126 123 120 118 119 108 103 100 86 84 86 83 78 70 80 84 97 106 97 99 106 99 106 93 100 110 80 77 71
155 99 112 124 130 166 167 162 173 218 73 119 146 153 158 163 162 159 150 141 140 134 124 118 122 123 112 104 94 99 93 87 80 79 75 87 90 94 92 92 88 94 89 80 85 80 79 79 82
165 125 111 124 135 152 162 178 185 177 138 136 146 157 164 164 160 157 152 151 152 146 142 128 125 117 107 101 107 122 108 100 99 84 85 92 100 96 101 100 94 92 91 97 89 92 89 83 77
135 143 143 148 152 169 182 185 195 165 152 151 158 165 170 168 167 165 168 167 163 158 151 143 144 127 121 120 114 100 103 109 95 98 103 101 102 102 103 104 101 98 95 92 101 98 95 86 81
157 169 170 182 193 184 209 214 197 162 164 166 171 173 173 175 176 181 177 175 167 159 157 149 148 135 126 104 90 93 97 94 91 93 104 105 101 108 114 105 110 111 110 107 98 97 98 96 90
185 206 211 180 207 200 231 239 170 169 180 182 182 178 180 181 185 186 183 177 168 164 153 145 146 140 124 112 108 103 99 92 93 94 89 101 108 109 108 106 107 115 117 113 108 108 103 99 89
205 223 237 218 205 218 233 248 181 181 195 196 193 189 186 186 190 189 189 183 172 166 157 151 145 140 128 118 117 106 99 91 95 97 88 91 96 106 110 101 112 120 122 121 118 109 108 103 96
219 232 241 250 216 236 244 250 222 197 209 209 201 199 194 193 191 187 186 180 171 170 167 154 140 145 137 138 132 119 103 96 93 93 90 81 84 89 99 113 124 126 134 128 123 114 104 101 102
240 245 257 270 265 255 257 260 250 212 215 216 210 205 203 199 191 185 185 181 177 177 175 162 157 157 155 153 152 142 127 119 107 87 82 87 89 95 97 110 110 128 131 137 139 132 128 120 122
229 244 260 260 246 263 274 271 258 226 222 220 216 209 206 201 193 188 189 188 185 181 182 175 166 165 168 166 155 146 135 122 106 106 95 84 86 86 95 102 114 129 130 141 140 148 141 133 164
233 244 260 271 277 246 280 266 237 225 222 222 223 219 210 203 198 192 191 190 188 185 186 179 171 170 170 164 153 150 140 143 136 122 101 78 76 78 81 91 102 116 137 144 153 161 157 161 158
239 240 250 257 265 265 269 286 247 225 217 218 218 215 213 205 202 194 190 187 189 185 182 179 176 174 169 170 171 167 163 156 142 134 123 115 96 86 74 84 98 119 125 140 150 148 164 182 185
242 215 233 251 266 270 248 268 268 211 238 231 218 213 212 207 202 197 192 187 185 178 178 177 173 172 171 177 171 177 172 159 147 144 137 130 109 99 93 90 104 112 116 129 143 149 182 184 226
179 186 197 231 255 259 256 255 274 237 259 256 226 213 208 204 200 197 190 184 179 175 175 173 173 174 171 178 180 183 174 170 161 161 152 148 133 122 110 104 103 109 113 121 131 142 143 143 105
203 223 232 226 228 252 228 251 266 305 285 271 253 218 201 197 195 192 187 186 181 178 177 175 176 175 176 181 186 183 183 180 174 165 161 161 148 135 121 117 110 105 104 111 118 129 125 124 128
208 226 245 264 267 275 221 250 271 340 294 275 257 218 194 191 192 192 189 188 185 182 181 181 181 178 177 183 185 184 178 186 174 172 166 164 153 140 130 125 116 115 119 121 112 106 103 102 105
209 223 252 272 275 270 249 258 261 217 267 278 230 187 188 189 190 190 188 189 187 184 183 184 182 180 180 184 184 181 180 181 176 174 170 159 148 141 137 134 133 124 123 123 117 102 100 95 98
238 205 209 237 264 264 266 261 258 219 283 303 224 195 185 183 187 188 186 188 188 185 183 183 183 182 181 181 178 177 179 178 176 170 167 159 151 147 147 151 143 137 135 131 119 106 93 111 96
189 201 217 232 250 268 277 272 61 269 284 292 267 198 184 181 183 184 183 183 182 181 180 182 184 183 180 179 177 176 176 178 174 172 164 164 157 160 153 154 147 138 134 130 126 116 116 112 113
218 217 216 229 238 246 269 273 111 275 284 280 249 180 177 177 178 180 180 179 179 180 182 185 184 182 180 178 177 178 174 179 178 172 170 170 161 157 151 150 141 129 124 118 124 125 124 109 104
Height
1528 1528 1528 1530 1527 1523 1527 1527 1525 1526 1527 1531 1531 1530 1531 1533 1535 1542 1542 1540 1541 1542 1542 1541 1541 1541 1542 1542 1543 1543 1543 1544 1544 1544 1545 1545 1545 1546 1546 1546 1546 1546 1546 1546 1546 1546 1546 1546 1546
1529 1529 1530 1530 1523 1526 1530 1526 1527 1528 1531 1532 1533 1533 1533 1537 1539 1541 1541 1541 1542 1542 1543 1542 1542 1542 1542 1543 1543 1544 1544 1544 1545 1545 1545 1545 1546 1546 1546 1547 1547 1547 1547 1547 1547 1547 1547 1547 1547
1529 1529 1531 1525 1523 1526 1529 1527 1528 1531 1533 1533 1534 1535 1537 1539 1541 1542 1542 1542 1543 1543 1543 1543 1542 1543 1543 1543 1544 1544 1545 1545 1545 1546 1546 1546 1546 1546 1547 1547 1547 1547 1547 1548 1548 1548 1548 1548 1548
1530 1531 1530 1525 1527 1526 1525 1527 1530 1532 1534 1534 1535 1537 1540 1542 1542 1543 1542 1543 1544 1544 1544 1543 1543 1543 1544 1544 1544 1545 1545 1546 1546 1546 1546 1547 1547 1547 1547 1547 1547 1547 1548 1548 1548 1548 1548 1548 1548
1530 1530 1526 1527 1528 1527 1527 1529 1531 1531 1533 1535 1535 1537 1541 1543 1543 1543 1544 1545 1545 1545 1545 1545 1544 1544 1545 1545 1545 1546 1546 1547 1547 1547 1547 1548 1548 1547 1547 1548 1548 1548 1548 1548 1549 1549 1549 1549 1549
1532 1528 1526 1529 1529 1529 1529 1531 1532 1532 1534 1536 1537 1538 1543 1544 1544 1545 1545 1546 1546 1546 1547 1546 1545 1546 1546 1546 1547 1547 1547 1547 1548 1548 1548 1549 1548 1549 1549 1549 1549 1549 1549 1549 1549 1549 1550 1550 1550
1531 1526 1526 1527 1530 1530 1531 1533 1533 1533 1535 1537 1538 1539 1543 1545 1546 1546 1547 1547 1548 1548 1548 1549 1548 1548 1547 1547 1548 1548 1549 1549 1549 1550 1550 1550 1550 1550 1550 1550 1550 1550 1550 1550 1550 1550 1551 1551 1551
1530 1527 1527 1527 1530 1531 1533 1534 1535 1535 1537 1539 1540 1540 1543 1546 1546 1547 1548 1549 1549 1549 1550 1550 1550 1550 1551 1550 1550 1550 1550 1551 1551 1551 1551 1552 1552 1552 1552 1552 1551 1551 1551 1551 1551 1552 1552 1552 1552
1531 1528 1528 1528 1529 1530 1533 1534 1536 1537 1538 1539 1540 1541 1543 1545 1546 1548 1549 1550 1551 1551 1551 1551 1552 1552 1552 1552 1552 1552 1552 1553 1553 1553 1553 1554 1555 1555 1555 1554 1553 1553 1553 1553 1553 1553 1553 1553 1553
1530 1527 1528 1528 1528 1530 1532 1533 1535 1536 1537 1539 1541 1542 1543 1545 1547 1549 1550 1551 1552 1552 1553 1553 1553 1553 1553 1553 1554 1554 1555 1555 1555 1555 1555 1556 1556 1556 1556 1555 1555 1555 1555 1555 1555 1555 1555 1555 1555
1529 1528 1529 1530 1531 1531 1532 1534 1535 1535 1535 1538 1540 1542 1544 1546 1547 1549 1550 1551 1552 1553 1553 1554 1554 1554 1554 1555 1555 1555 1556 1556 1557 1556 1557 1557 1557 1558 1558 1558 1558 1557 1557 1557 1557 1557 1557 1557 1557
1530 1530 1531 1531 1532 1533 1533 1534 1535 1536 1537 1538 1540 1542 1544 1545 1547 1549 1551 1552 1553 1554 1554 1555 1555 1556 1556 1556 1556 1556 1557 1558 1558 1558 1559 1559 1559 1559 1559 1559 1559 1559 1559 1558 1559 1559 1559 1559 1558
1529 1531 1532 1532 1533 1533 1534 1534 1535 1536 1538 1539 1540 1542 1544 1545 1548 1549 1551 1552 1553 1554 1555 1556 1556 1557 1557 1557 1557 1558 1558 1559 1559 1559 1560 1560 1560 1561 1561 1561 1560 1560 1560 1560 1560 1560 1560 1560 1560
1531 1531 1532 1532 1533 1534 1534 1534 1535 1536 1538 1539 1541 1542 1544 1546 1548 1549 1551 1552 1554 1555 1556 1556 1557 1558 1558 1559 1559 1559 1560 1560 1560 1560 1561 1561 1561 1561 1562 1562 1562 1562 1562 1562 1562 1562 1562 1562 1561
1531 1531 1531 1531 1532 1533 1534 1533 1533 1536 1538 1539 1541 1542 1544 1546 1548 1549 1551 1552 1554 1555 1556 1557 1558 1559 1559 1560 1560 1560 1561 1561 1561 1561 1562 1562 1562 1562 1563 1563 1563 1563 1563 1563 1563 1563 1563 1563 1563
1530 1529 1531 1530 1531 1532 1534 1533 1532 1535 1537 1538 1539 1541 1543 1545 1547 1549 1551 1552 1553 1555 1556 1557 1558 1559 1560 1560 1561 1562 1562 1562 1562 1562 1563 1563 1563 1563 1563 1564 1564 1564 1564 1564 1564 1564 1565 1564 1564
1528 1530 1530 1530 1530 1530 1531 1530 1530 1534 1535 1536 1538 1540 1542 1544 1546 1548 1550 1552 1553 1555 1556 1557 1558 1559 1560 1561 1561 1562 1562 1562 1563 1563 1563 1564 1564 1564 1564 1564 1564 1565 1565 1565 1565 1566 1566 1566 1565
1530 1528 1530 1529 1527 1529 1529 1527 1528 1532 1534 1534 1536 1538 1540 1542 1545 1547 1549 1551 1552 1554 1556 1557 1558 1560 1560 1561 1562 1562 1563 1563 1564 1564 1564 1564 1565 1565 1565 1565 1565 1565 1565 1566 1566 1566 1566 1566 1566
1526 1528 1529 1527 1527 1528 1526 1525 1524 1528 1531 1532 1533 1535 1538 1540 1543 1546 1547 1549 1551 1553 1555 1557 1558 1559 1560 1561 1563 1563 1564 1564 1564 1565 1565 1565 1565 1565 1565 1565 1566 1566 1566 1566 1567 1567 1567 1567 1568
1527 1529 1528 1526 1526 1527 1525 1523 1521 1523 1526 1528 1530 1532 1535 1538 1541 1544 1546 1548 1550 1552 1554 1556 1558 1559 1560 1561 1563 1563 1564 1565 1565 1565 1566 1566 1566 1566 1566 1566 1566 1566 1566 1567 1567 1567 1568 1568 1568
1526 1527 1527 1528 1526 1525 1526 1522 1518 1520 1523 1526 1528 1529 1532 1535 1538 1541 1544 1546 1549 1551 1553 1555 1557 1558 1560 1561 1562 1563 1564 1565 1566 1566 1566 1566 1566 1566 1566 1566 1567 1566 1567 1567 1568 1568 1569 1569 1569
1527 1524 1526 1528 1528 1525 1527 1527 1516 1515 1518 1521 1524 1526 1528 1532 1535 1538 1541 1544 1546 1549 1552 1554 1556 1558 1560 1561 1562 1564 1565 1566 1566 1567 1567 1567 1567 1567 1567 1567 1567 1567 1567 1568 1568 1569 1569 1569 1570
1524 1525 1526 1526 1526 1526 1523 1526 1515 1513 1516 1515 1518 1521 1524 1528 1531 1535 1538 1541 1544 1547 1550 1552 1555 1557 1559 1560 1562 1563 1565 1566 1566 1566 1567 1567 1567 1567 1567 1567 1567 1568 1568 1568 1568 1569 1569 1569 1570
1525 1526 1526 1526 1525 1530 1522 1524 1519 1511 1512 1511 1513 1517 1520 1524 1528 1532 1536 1539 1542 1545 1548 1551 1553 1556 1558 1560 1561 1563 1564 1565 1566 1567 1567 1568 1568 1568 1568 1568 1568 1568 1569 1569 1569 1569 1569 1569 1570
1524 1526 1531 1532 1532 1527 1520 1523 1517 1508 1509 1510 1511 1514 1517 1521 1525 1528 1532 1536 1539 1543 1546 1549 1552 1554 1557 1559 1561 1563 1564 1566 1566 1567 1567 1568 1568 1568 1568 1569 1569 1569 1569 1569 1569 1569 1569 1570 1570
1520 1521 1530 1536 1532 1524 1521 1520 1510 1508 1510 1511 1511 1512 1515 1518 1522 1525 1529 1533 1536 1540 1544 1547 1550 1553 1555 1558 1560 1562 1564 1565 1566 1566 1567 1568 1568 1569 1569 1569 1570 1570 1570 1570 1570 1570 1570 1570 1570
1520 1519 1518 1524 1524 1527 1517 1512 1507 1507 1508 1509 1510 1511 1513 1516 1519 1523 1527 1530 1534 1538 1542 1545 1548 1552 1554 1557 1559 1561 1563 1564 1565 1566 1567 1568 1568 1569 1569 1570 1570 1570 1570 1570 1571 1570 1570 1570 1570
1516 1516 1522 1525 1530 1529 1521 1516 1511 1507 1507 1507 1508 1510 1512 1514 1517 1521 1524 1528 1532 1536 1540 1543 1547 1550 1553 1556 1558 1560 1562 1564 1565 1566 1567 1568 1568 1569 1570 1571 1571 1571 1571 1571 1571 1571 1571 1571 1571
1518 1519 1518 1519 1521 1527 1526 1517 1504 1505 1505 1506 1507 1508 1510 1513 1515 1519 1522 1526 1530 1534 1537 1541 1545 1549 1552 1554 1557 1559 1561 1563 1564 1566 1567 1568 1569 1570 1570 1571 1572 1572 1572 1572 1571 1572 1572 1572 1572
1510 1511 1514 1522 1521 1520 1522 1516 1502 1504 1505 1506 1506 1508 1510 1512 1514 1517 1520 1524 1528 1532 1536 1539 1543 1547 1550 1553 1555 1558 1560 1562 1564 1565 1567 1568 1569 1570 1571 1571 1572 1572 1572 1572 1572 1572 1573 1573 1573